STARLINK-2335

decayed
NORAD ID: 47878 Int'l Des: 2021-021 Owner: SPXS Country: US Constellation: starlink
LEOCIRCULAR
Group

About STARLINK-2335

Description loading...

Altitude History

Altitude vs Time

uPlot chart will show altitude changes over time

Two-Line Element Set

1 47878U 21021U 25055.76717884 .19845140 12430-4 71120-3 0 9995
2 47878 53.0265 127.1078 0004535 231.2136 230.7975 16.44194757219326
Epoch: Feb 24, 2025 • Age: 4863 hours

Current Status

Position data unavailable
Launch Date Mar 14, 2021
Age 4.5 years
Decay Date Feb 24, 2025
Type internet

Technical Details

Classification Payload
Mass 260.00 kg
Dry Mass 248.00 kg
Total Mass 260.00 kg
Length 0.20 m
Diameter 2.80 m
Span 9.00 m
Shape Box + pan
Manufacturer SPXS
Bus Type Starlink
Phase Status Reentered
Owner/State SPXS/US

Large Constellations

Loading constellations...